Regional Weather Roundup
Issued by NWS Binghamton, NY

Home | Current Version | Previous Version | Text Only | Print | Product List | Glossary On
Versions: 1 2 3 4 5 6 7 8 9 10 11 12 13 14 15 16 17 18 19 20 21 22 23 24 25 26 27 28 29 30 31 32 33 34 35 36 37 38 39 40 41 42 43 44 45 46 47 48 49 50
000
ASUS41 KBGM 260710
RWRBGM
RWRBGM
BINGHAMTON REGIONAL WEATHER ROUNDUP
NATIONAL WEATHER SERVICE BINGHAMTON NY
300 AM EDT TUE MAY 26 2015

Note: "fair" indicates few or no clouds below 12,000 feet with no
significant weather and/or obstructions to visibility.

* = Station(s) that does not report precipitation, such as rain,
snow, etc, also no thunder or fog.

!NYZ009-015>018-022>025-036-037-044>046-055>057-062-260800
...CENTRAL NEW YORK...

CITY           SKY/WX    TMP DP  RH WIND       PRES   REMARKS
BINGHAMTON     CLOUDY    69  57  65 SW13      30.15R
CORTLAND       CLOUDY    72  59  64 SW7       30.11S
DANSVILLE      MOCLDY    67  60  78 VRB5      30.08R
ELMIRA         CLOUDY    71  60  68 SW5       30.10R
ITHACA         CLOUDY    71  59  66 S7        30.11S
MONTICELLO     CLEAR     63  57  82 SW3       30.20S
NORWICH        MOCLDY    66  57  72 S6        30.12F
ONEONTA        PTCLDY    66  55  68 SW8G16    30.14S
PENN YAN       PTCLDY    73  58  59 S9        30.08R
ROME           CLOUDY    69  61  75 SE3       30.07S
SIDNEY         MOCLDY    70  61  73 SW6       30.13S
SYRACUSE       MOCLDY    74  58  57 SW7       30.04S
$$

!PAZ038>040-043-044-047-048-072-260800
...NORTHEAST PENNSYLVANIA...

CITY           SKY/WX    TMP DP  RH WIND       PRES   REMARKS
HAZLETON       PTCLDY    66  57  72 CALM      30.23S
SCRANTON       PTCLDY    70  57  63 SW5       30.16F
$$
&&
KEY
WCI = WIND CHILL INDEX
VSB = VISIBILITY
HX  = HEAT INDEX
$$


USA.gov is the U.S. government's official web portal to all federal, state and local government web resources and services.